#timestamp,LO_Frequency,Hit,StdDev 
1678417215.5,286047001.0,N
1678417235.3,286047000.0,N
1678417255.2,286047002.2,N
1678417275.0,286047001.5,N
1678417275.9,286047001.5,N
1678417295.8,286047002.0,N
1678417315.6,286047002.8,Y
1678417335.4,286047000.9,P
1678417355.3,286047000.5,P
1678417375.1,286046998.1,P
1678417395.8,286046998.7,N
1678417415.7,286046996.9,N
1678417435.5,286046996.9,N
1678417455.4,286046997.1,N
1678417475.2,286046996.8,N
1678417495.0,286046997.3,N
1678417495.9,286046997.3,N
1678417515.8,286046997.8,N
1678417535.6,286046997.2,N
1678417555.4,286046999.2,N
1678417575.3,286046996.9,N
1678417595.1,286046998.0,N
1678417615.9,286046996.3,N
1678417635.7,286046997.4,N
1678417655.5,286046997.7,N
1678417675.4,286046997.3,N
1678417695.2,286046997.3,N
1678417715.1,286046997.6,N
1678417716.0,286046997.6,N
1678417735.8,286046997.9,N
1678417755.6,286046997.2,N
1678417775.5,286046997.7,N
1678417795.3,286046995.7,Y
1678417815.2,286046997.5,P
1678417835.9,286046994.9,P
1678417855.7,286046996.9,N
1678417875.6,286046996.7,N
1678417895.4,286046997.5,N
1678417915.2,286046997.8,N
1678417935.1,286046997.1,Y
1678417936.0,286046997.1,P
1678417955.8,286047001.1,P
1678417975.7,286046999.3,N
1678417995.5,286046998.3,N
1678418015.3,286047000.6,N
1678418035.2,286047000.2,N
1678418055.0,286046998.4,N
1678418055.9,286046998.4,N
1678418075.8,286046998.6,N
1678418095.6,286046998.2,N
1678418115.4,286047001.1,N
1678418135.3,286047000.9,N
1678418155.1,286047000.6,N
1678418175.8,286046999.4,N
1678418195.7,286046999.4,N
1678418215.5,286046999.3,N
1678418235.3,286046999.1,N
1678418255.2,286046998.5,N
1678418275.0,286046998.5,N
1678418275.9,286046998.5,N
1678418295.8,286046998.2,N
1678418315.6,286046999.6,N
1678418335.4,286046999.0,N
1678418355.3,286046998.5,N
1678418375.1,286046998.5,N
1678418395.9,286046999.0,N
1678418415.7,286046998.4,N
1678418435.5,286046999.0,N
1678418455.4,286046999.2,N
1678418475.2,286046999.2,N
1678418495.1,286046999.0,N
1678418496.0,286046999.0,N
1678418515.8,286046996.5,Y
1678418535.6,286046998.7,P
1678418555.5,286046997.7,P
1678418575.3,286046997.5,P
1678418595.1,286046998.0,N
1678418615.9,286046998.0,Y
1678418635.7,286046999.5,P
1678418655.6,286046996.5,P
1678418675.4,286046996.5,N
1678418695.2,286046997.3,N
1678418715.1,286046997.0,N
1678418716.0,286046997.0,N
1678418735.8,286046996.7,Y
1678418755.7,286047000.4,P
1678418775.5,286047000.9,N
1678418795.3,286046998.1,N
1678418815.2,286047001.1,N
1678418835.0,286046998.7,N
1678418835.9,286046998.7,N
1678418855.7,286046999.0,N
1678418875.6,286046999.0,N
1678418895.4,286046999.2,N
1678418915.3,286046999.2,N
1678418935.1,286046996.8,N
1678418936.0,286046996.8,N
1678418955.8,286046997.3,N
1678418975.7,286046997.3,N
1678418995.5,286046997.2,N
1678419015.3,286046994.9,Y
1678419035.2,286046996.9,P
1678419055.0,286046999.0,N
1678419055.9,286046999.0,N
1678419075.8,286046997.0,Y
1678419095.6,286046998.5,P
1678419115.4,286046998.2,P
1678419135.3,286046999.0,P
1678419155.1,286046999.2,N
1678419175.9,286046999.3,N
1678419195.7,286046998.4,Y
1678419215.5,286047000.4,P
1678419235.4,286047002.8,P
1678419255.2,286047002.7,N
1678419275.0,286047002.4,N
1678419275.9,286047002.4,N
1678419295.8,286047000.5,N
1678419315.6,286046998.5,N
1678419335.5,286046998.7,N
1678419355.3,286046998.5,N
1678419375.1,286047000.0,N
1678419395.9,286046999.2,N
1678419415.7,286046996.5,N
1678419435.5,286046999.1,N
1678419455.4,286046998.3,N
1678419475.2,286046999.3,N
1678419495.1,286046996.5,N
1678419496.0,286046996.5,N
1678419515.8,286046996.8,N
1678419535.6,286046999.5,N
1678419555.5,286046999.2,N
1678419575.3,286046996.9,N
1678419595.1,286046996.8,N
1678419615.9,286046996.8,N
1678419635.7,286046996.6,N
1678419655.6,286046997.1,N
1678419675.4,286046997.8,N
1678419695.2,286046997.8,N
1678419715.1,286046997.6,N
1678419716.0,286046997.6,N
1678419735.8,286046997.5,N
1678419755.7,286046995.1,N
1678419775.5,286046995.1,N
1678419795.3,286046993.8,Y
1678419815.2,286046997.2,P
1678419835.0,286046997.8,P
1678419835.9,286046997.8,P
1678419855.8,286046997.4,Y
1678419875.6,286046998.3,P
1678419895.4,286046999.4,N
1678419915.3,286046999.0,N
1678419935.1,286046999.5,N
1678419955.9,286046998.1,N
1678420005.7,286046998.9,E
1678420015.7,286047001.1,N
1678420035.5,286047002.7,P
1678420055.3,286046999.7,N
1678420075.2,286047002.4,N
1678420095.0,286047000.4,N
1678420095.9,286047000.4,N
1678420115.8,286046998.2,N
1678420135.6,286046998.3,N
1678420155.4,286047001.2,N
1678420175.3,286047001.1,N
1678420195.1,286047001.0,N
1678420215.9,286047001.0,N
1678420235.7,286047000.3,N
1678420255.5,286047000.8,N
1678420275.4,286046998.5,N
1678420295.2,286047001.0,N
1678420315.0,286046998.3,N
1678420316.0,286046998.3,N
1678420335.8,286046998.8,N
1678420355.6,286046998.7,N
1678420375.5,286046998.5,N
1678420395.3,286046998.7,N
1678420415.1,286046999.3,N
1678420435.9,286046999.3,N
1678420455.7,286046998.9,N
1678420475.5,286046999.3,N
1678420495.4,286047000.3,N
1678420515.8,286046998.2,N
1678420535.6,286047001.1,N
1678420555.4,286046998.9,N
1678420575.3,286046998.5,N
1678420595.1,286046996.9,N
1678420615.9,286046996.9,N
1678420635.7,286046998.9,N
1678420655.5,286046999.2,N
1678420675.4,286046999.4,N
1678420695.2,286046998.3,N
1678420715.0,286046998.1,N
1678420716.0,286046998.1,N
1678420735.8,286046998.6,N
1678420755.6,286046998.5,N
1678420775.5,286046998.7,N
1678420795.3,286046998.6,N
